This is the latest recevied weather packets stored in our database for station/object N8AMF. If no packets are shown the sender has not sent any weather packets the latest 10 day(s).
| Time | Temp. | Humidity | Pressure | Rain* | Wind** | Luminosity | Snow |
|---|---|---|---|---|---|---|---|
| 1777501669 | 8.33° C | 98% | 1009.9 hPa | 0.51 mm | - | 26 W/m² | - |
| 1777501365 | 8.33° C | 98% | 1010.1 hPa | 0 mm | - | 54 W/m² | - |
| 1777501063 | 8.33° C | 98% | 1010 hPa | 0 mm | - | 32 W/m² | - |
| 1777500761 | 8.33° C | 98% | 1009.8 hPa | 0 mm | - | 54 W/m² | - |
| 1777500458 | 8.33° C | 98% | 1009.9 hPa | 0 mm | - | 44 W/m² | - |
| 1777500154 | 8.33° C | 98% | 1010 hPa | 0 mm | - | 30 W/m² | - |
| 1777499851 | 7.78° C | 98% | 1010.1 hPa | 0 mm | - | 36 W/m² | - |
| 1777499547 | 8.33° C | 97% | 1010 hPa | 0 mm | - | 40 W/m² | - |
| 1777499245 | 8.33° C | 97% | 1010 hPa | 0 mm | - | 39 W/m² | - |
| 1777498942 | 8.33° C | 97% | 1009.8 hPa | 0 mm | - | 70 W/m² | - |
| 1777498638 | 8.33° C | 98% | 1009.7 hPa | 0 mm | - | 85 W/m² | - |
| 1777498334 | 8.33° C | 97% | 1009.5 hPa | 0.51 mm | - | 136 W/m² | - |
| 1777498033 | 8.33° C | 97% | 1009.6 hPa | 0.51 mm | - | 93 W/m² | - |
| 1777497729 | 8.33° C | 97% | 1009.4 hPa | 0 mm | - | 78 W/m² | - |
| 1777497425 | 8.33° C | 97% | 1009.2 hPa | 0 mm | - | 88 W/m² | - |
| 1777497121 | 8.33° C | 97% | 1009.5 hPa | 0 mm | - | 64 W/m² | - |
| 1777496818 | 8.33° C | 97% | 1009.4 hPa | 0 mm | - | 61 W/m² | - |
| 1777496515 | 8.33° C | 97% | 1009.5 hPa | 0.51 mm | - | 66 W/m² | - |
| 1777496211 | 8.33° C | 97% | 1009.6 hPa | 0.51 mm | - | 69 W/m² | - |
| 1777495907 | 8.89° C | 97% | 1009.5 hPa | 0.51 mm | - | 108 W/m² | - |
| 1777495604 | 8.89° C | 97% | 1009.4 hPa | 0.51 mm | - | 76 W/m² | - |
| 1777495299 | 8.89° C | 96% | 1009.3 hPa | 0.51 mm | - | 77 W/m² | - |
| 1777494998 | 8.89° C | 96% | 1009.2 hPa | 1.27 mm | - | 87 W/m² | - |
| 1777494694 | 8.89° C | 96% | 1009.2 hPa | 1.78 mm | - | 76 W/m² | - |
| 1777494391 | 8.89° C | 96% | 1009.2 hPa | 1.27 mm | - | 124 W/m² | - |
* Rain latest hour (hover to see other rain measurements)
** Current wind speed in m/s (hover to see current wind gust speed)